Location: Borojevi?i
(45.0486°N, 16.2297°E)
Time: 14:36:25
(UTC+00:00)

Cosmos 2208 Rocket - Pass Details

Date: 08 August 2020
Orbit: 755 x 805 km, 74.0° (Epoch: 18 September)

Event Time Altitude Azimuth Distance (km) Brightness Sun altitude
Rises 21:47:41 0° 338° (NNW) 3,266 8.6 -26.9°
Reaches altitude 10° 21:50:05 10° 337° (NNW) 2,327 7.5 -27.1°
Enters shadow 21:55:08 80° 300° (WNW) 783 4.0 -27.4°
